| time (UTC) | temp C | wind direction | speed KPH | gust KPH | rain 1hr cm | rain 24hr cm | rain mn cm | humidity % | barometer mb |
| 20260506202704 | 29 | 286 | 1.6 | 3.2 | 0.00 | 0.03 | 0.03 | 80 | 1006.7 |
| 20260506201704 | 30 | 347 | 0.0 | 3.2 | 0.00 | 0.03 | 0.03 | 79 | 1006.9 |
| 20260506201206 | 30 | 267 | 1.6 | 3.2 | 0.00 | 0.03 | 0.03 | 77 | 1006.9 |
| 20260506200704 | 30 | 289 | 1.6 | 4.8 | 0.00 | 0.03 | 0.03 | 77 | 1006.9 |
| 20260506200203 | 30 | 328 | 1.6 | 3.2 | 0.00 | 0.03 | 0.03 | 77 | 1007.0 |
| 20260506195704 | 30 | 313 | 1.6 | 3.2 | 0.00 | 0.03 | 0.03 | 78 | 1007.0 |
| 20260506194704 | 30 | 63 | 1.6 | 8.0 | 0.00 | 0.03 | 0.03 | 80 | 1006.9 |
| 20260506194204 | 29 | 249 | 1.6 | 4.8 | 0.00 | 0.03 | 0.03 | 79 | 1007.0 |
| 20260506193204 | 29 | 313 | 1.6 | 4.8 | 0.00 | 0.03 | 0.03 | 80 | 1007.2 |
| 20260506192704 | 30 | 290 | 1.6 | 8.0 | 0.00 | 0.03 | 0.03 | 79 | 1007.2 |
| 20260506192205 | 30 | 162 | 1.6 | 4.8 | 0.00 | 0.03 | 0.03 | 78 | 1007.2 |
| 20260506191704 | 30 | 324 | 1.6 | 4.8 | 0.00 | 0.03 | 0.03 | 76 | 1007.2 |
| 20260506191204 | 31 | 281 | 1.6 | 3.2 | 0.00 | 0.03 | 0.03 | 76 | 1007.2 |
| 20260506190705 | 31 | 292 | 0.0 | 3.2 | 0.00 | 0.03 | 0.03 | 76 | 1007.3 |
| 20260506190204 | 31 | 295 | 1.6 | 3.2 | 0.00 | 0.03 | 0.03 | 76 | 1007.4 |
| 20260506185704 | 31 | 36 | 0.0 | 3.2 | 0.00 | 0.03 | 0.03 | 77 | 1007.5 |
| 20260506185204 | 31 | 293 | 1.6 | 4.8 | 0.00 | 0.03 | 0.03 | 75 | 1007.5 |
| 20260506184206 | 31 | 37 | 0.0 | 3.2 | 0.00 | 0.03 | 0.03 | 74 | 1007.7 |
| 20260506183704 | 30 | 8 | 0.0 | 3.2 | 0.00 | 0.03 | 0.03 | 76 | 1007.7 |
| 20260506183204 | 30 | 296 | 0.0 | 4.8 | 0.00 | 0.03 | 0.03 | 78 | 1007.8 |
| 20260506182704 | 30 | 0 | 0.0 | 3.2 | 0.00 | 0.03 | 0.03 | 78 | 1007.9 |
| 20260506181205 | 29 | 331 | 1.6 | 4.8 | 0.00 | 0.03 | 0.03 | 80 | 1008.1 |
| 20260506180704 | 29 | 325 | 1.6 | 3.2 | 0.00 | 0.03 | 0.03 | 80 | 1008.3 |
| 20260506180204 | 29 | 312 | 0.0 | 3.2 | 0.00 | 0.03 | 0.03 | 81 | 1008.4 |
| 20260506175704 | 29 | 268 | 1.6 | 3.2 | 0.00 | 0.03 | 0.03 | 80 | 1008.5 |
| 20260506175204 | 29 | 295 | 0.0 | 3.2 | 0.00 | 0.03 | 0.03 | 79 | 1008.4 |
| 20260506174704 | 30 | 193 | 0.0 | 3.2 | 0.00 | 0.03 | 0.03 | 80 | 1008.6 |
| 20260506172704 | 29 | 304 | 1.6 | 3.2 | 0.00 | 0.03 | 0.03 | 80 | 1008.7 |
| 20260506172204 | 28 | 8 | 1.6 | 3.2 | 0.00 | 0.03 | 0.03 | 81 | 1008.7 |
| 20260506171704 | 28 | 299 | 1.6 | 1.6 | 0.00 | 0.03 | 0.03 | 81 | 1008.7 |
| 20260506170704 | 28 | 305 | 1.6 | 3.2 | 0.00 | 0.03 | 0.03 | 84 | 1008.9 |
| 20260506170204 | 28 | 133 | 1.6 | 3.2 | 0.00 | 0.03 | 0.03 | 84 | 1009.0 |
| 20260506165704 | 27 | 321 | 1.6 | 1.6 | 0.03 | 0.03 | 0.03 | 85 | 1008.9 |
| 20260506165204 | 27 | 316 | 1.6 | 3.2 | 0.03 | 0.03 | 0.03 | 86 | 1009.0 |
| 20260506163706 | 27 | 288 | 0.0 | 3.2 | 0.03 | 0.03 | 0.03 | 88 | 1009.0 |
| 20260506163204 | 27 | 230 | 0.0 | 3.2 | 0.03 | 0.03 | 0.03 | 88 | 1008.9 |
| 20260506162204 | 27 | 258 | 0.0 | 1.6 | 0.00 | 0.00 | 0.00 | 89 | 1008.7 |
| 20260506161704 | 26 | 276 | 1.6 | 1.6 | 0.00 | 0.00 | 0.00 | 89 | 1008.7 |
| 20260506160704 | 26 | 308 | 0.0 | 1.6 | 0.00 | 0.00 | 0.00 | 90 | 1008.7 |
| 20260506160204 | 26 | 313 | 0.0 | 1.6 | 0.00 | 0.00 | 0.00 | 89 | 1008.7 |
| 20260506155703 | 26 | 294 | 0.0 | 1.6 | 0.00 | 0.00 | 0.00 | 88 | 1008.6 |
| 20260506154704 | 26 | 287 | 0.0 | 3.2 | 0.00 | 0.00 | 0.00 | 88 | 1008.6 |
| 20260506154205 | 26 | 307 | 0.0 | 1.6 | 0.00 | 0.00 | 0.00 | 88 | 1008.6 |
| 20260506153704 | 26 | 300 | 0.0 | 1.6 | 0.00 | 0.00 | 0.00 | 88 | 1008.6 |
| 20260506153205 | 26 | 283 | 0.0 | 1.6 | 0.00 | 0.00 | 0.00 | 88 | 1008.5 |
| 20260506152705 | 26 | 265 | 0.0 | 1.6 | 0.00 | 0.00 | 0.00 | 88 | 1008.3 |
| 20260506152204 | 26 | 260 | 1.6 | 1.6 | 0.00 | 0.00 | 0.00 | 88 | 1008.2 |
| 20260506151704 | 26 | 291 | 1.6 | 1.6 | 0.00 | 0.00 | 0.00 | 88 | 1008.2 |
| 20260506151204 | 26 | 241 | 0.0 | 1.6 | 0.00 | 0.00 | 0.00 | 88 | 1008.2 |
| 20260506150204 | 26 | 251 | 1.6 | 1.6 | 0.00 | 0.00 | 0.00 | 88 | 1008.1 |
| 20260506145704 | 26 | 254 | 0.0 | 1.6 | 0.00 | 0.00 | 0.00 | 88 | 1008.0 |
| 20260506144704 | 26 | 281 | 1.6 | 3.2 | 0.00 | 0.00 | 0.00 | 89 | 1007.9 |
| 20260506144204 | 26 | 294 | 1.6 | 3.2 | 0.00 | 0.00 | 0.00 | 89 | 1007.7 |
| 20260506143704 | 26 | 25 | 1.6 | 3.2 | 0.00 | 0.00 | 0.00 | 89 | 1007.6 |
| 20260506142704 | 26 | 214 | 1.6 | 1.6 | 0.00 | 0.00 | 0.00 | 89 | 1007.6 |
| 20260506142204 | 26 | 249 | 0.0 | 3.2 | 0.00 | 0.00 | 0.00 | 90 | 1007.7 |
| 20260506141704 | 26 | 226 | 1.6 | 1.6 | 0.00 | 0.00 | 0.00 | 90 | 1007.7 |
| 20260506141204 | 26 | 266 | 0.0 | 1.6 | 0.00 | 0.00 | 0.00 | 90 | 1007.8 |
| 20260506140704 | 26 | 343 | 0.0 | 3.2 | 0.00 | 0.00 | 0.00 | 91 | 1007.9 |
| 20260506140205 | 26 | 67 | 0.0 | 3.2 | 0.00 | 0.00 | 0.00 | 91 | 1007.9 |
| 20260506135704 | 26 | 188 | 0.0 | 3.2 | 0.00 | 0.00 | 0.00 | 92 | 1007.9 |
| 20260506135204 | 25 | 280 | 0.0 | 1.6 | 0.00 | 0.00 | 0.00 | 92 | 1007.9 |
| 20260506134705 | 25 | 218 | 1.6 | 3.2 | 0.00 | 0.00 | 0.00 | 92 | 1007.9 |
| 20260506134205 | 25 | 321 | 0.0 | 1.6 | 0.00 | 0.00 | 0.00 | 93 | 1007.9 |
| 20260506133704 | 25 | 199 | 0.0 | 1.6 | 0.00 | 0.00 | 0.00 | 93 | 1007.9 |
| 20260506133204 | 25 | 27 | 0.0 | 1.6 | 0.00 | 0.00 | 0.00 | 93 | 1008.0 |
| 20260506132704 | 25 | 233 | 0.0 | 1.6 | 0.00 | 0.00 | 0.00 | 94 | 1008.0 |
| 20260506132204 | 25 | 245 | 0.0 | 1.6 | 0.00 | 0.00 | 0.00 | 94 | 1008.0 |
| 20260506131704 | 25 | 246 | 0.0 | 1.6 | 0.00 | 0.00 | 0.00 | 94 | 1008.0 |
| 20260506131204 | 25 | 165 | 0.0 | 1.6 | 0.00 | 0.00 | 0.00 | 95 | 1008.0 |
| 20260506130704 | 25 | 284 | 0.0 | 1.6 | 0.00 | 0.00 | 0.00 | 95 | 1008.0 |
| 20260506130204 | 25 | 308 | 0.0 | 0.0 | 0.00 | 0.00 | 0.00 | 95 | 1008.1 |
| 20260506125705 | 25 | 184 | 0.0 | 1.6 | 0.00 | 0.00 | 0.00 | 95 | 1008.1 |
| 20260506125205 | 25 | 268 | 0.0 | 1.6 | 0.00 | 0.00 | 0.00 | 95 | 1008.0 |
| 20260506124704 | 25 | 286 | 0.0 | 1.6 | 0.00 | 0.00 | 0.00 | 95 | 1008.0 |
| 20260506124204 | 25 | 231 | 0.0 | 1.6 | 0.00 | 0.00 | 0.00 | 95 | 1008.0 |
| 20260506123703 | 25 | 255 | 0.0 | 0.0 | 0.00 | 0.00 | 0.00 | 95 | 1007.9 |
| 20260506123204 | 24 | 232 | 1.6 | 3.2 | 0.00 | 0.00 | 0.00 | 96 | 1007.8 |
| 20260506122703 | 24 | 327 | 0.0 | 1.6 | 0.00 | 0.00 | 0.00 | 96 | 1007.8 |
| 20260506122204 | 24 | 302 | 0.0 | 1.6 | 0.00 | 0.00 | 0.00 | 96 | 1007.8 |
| 20260506121204 | 24 | 296 | 0.0 | 1.6 | 0.00 | 0.00 | 0.00 | 96 | 1007.6 |
| 20260506120704 | 24 | 146 | 0.0 | 1.6 | 0.00 | 0.00 | 0.00 | 96 | 1007.5 |
| 20260506120204 | 24 | 260 | 0.0 | 1.6 | 0.00 | 0.00 | 0.00 | 96 | 1007.5 |
| 20260506115204 | 24 | 287 | 0.0 | 1.6 | 0.00 | 0.00 | 0.00 | 96 | 1007.3 |
| 20260506114204 | 24 | 206 | 0.0 | 1.6 | 0.00 | 0.00 | 0.00 | 96 | 1007.3 |
| 20260506113704 | 24 | 289 | 0.0 | 3.2 | 0.00 | 0.00 | 0.00 | 96 | 1007.2 |
| 20260506113203 | 24 | 336 | 1.6 | 3.2 | 0.00 | 0.00 | 0.00 | 96 | 1007.1 |
| 20260506112704 | 24 | 289 | 0.0 | 3.2 | 0.00 | 0.00 | 0.00 | 96 | 1007.0 |
| 20260506112204 | 24 | 264 | 0.0 | 1.6 | 0.00 | 0.00 | 0.00 | 96 | 1007.0 |
| 20260506111704 | 24 | 279 | 1.6 | 3.2 | 0.00 | 0.00 | 0.00 | 97 | 1006.9 |
| 20260506110704 | 23 | 191 | 0.0 | 1.6 | 0.00 | 0.00 | 0.00 | 97 | 1006.8 |
| 20260506105704 | 23 | 265 | 0.0 | 1.6 | 0.00 | 0.00 | 0.00 | 97 | 1006.7 |
| 20260506105204 | 23 | 298 | 0.0 | 1.6 | 0.00 | 0.00 | 0.00 | 97 | 1006.8 |
| 20260506104705 | 23 | 143 | 0.0 | 1.6 | 0.00 | 0.00 | 0.00 | 97 | 1006.8 |
| 20260506104204 | 23 | 315 | 0.0 | 3.2 | 0.00 | 0.00 | 0.00 | 97 | 1006.7 |
| 20260506103705 | 23 | 190 | 0.0 | 1.6 | 0.00 | 0.00 | 0.00 | 97 | 1006.7 |
| 20260506103204 | 23 | 206 | 0.0 | 1.6 | 0.00 | 0.00 | 0.00 | 96 | 1006.8 |
| 20260506102204 | 23 | 247 | 0.0 | 1.6 | 0.00 | 0.00 | 0.00 | 96 | 1006.7 |
| 20260506101704 | 23 | 149 | 0.0 | 1.6 | 0.00 | 0.00 | 0.00 | 96 | 1006.7 |
| 20260506101205 | 23 | 200 | 1.6 | 4.8 | 0.00 | 0.00 | 0.00 | 96 | 1006.7 |
| 20260506100704 | 23 | 216 | 1.6 | 4.8 | 0.00 | 0.00 | 0.00 | 96 | 1006.7 |
| 20260506100203 | 23 | 276 | 0.0 | 1.6 | 0.00 | 0.00 | 0.00 | 96 | 1006.7 |
| 20260506095704 | 23 | 274 | 0.0 | 1.6 | 0.00 | 0.00 | 0.00 | 96 | 1006.7 |
| 20260506095204 | 23 | 269 | 0.0 | 3.2 | 0.00 | 0.00 | 0.00 | 96 | 1006.6 |
| 20260506094204 | 23 | 146 | 1.6 | 1.6 | 0.00 | 0.00 | 0.00 | 96 | 1006.6 |
| 20260506093703 | 23 | 300 | 0.0 | 1.6 | 0.00 | 0.00 | 0.00 | 96 | 1006.6 |
| 20260506093204 | 23 | 282 | 0.0 | 1.6 | 0.00 | 0.00 | 0.00 | 95 | 1006.5 |
| 20260506092703 | 23 | 39 | 0.0 | 1.6 | 0.00 | 0.00 | 0.00 | 95 | 1006.5 |
| 20260506092204 | 24 | 289 | 0.0 | 1.6 | 0.00 | 0.00 | 0.00 | 95 | 1006.5 |
| 20260506091704 | 24 | 297 | 0.0 | 1.6 | 0.00 | 0.00 | 0.00 | 95 | 1006.6 |
| 20260506090704 | 24 | 283 | 1.6 | 3.2 | 0.00 | 0.00 | 0.00 | 94 | 1006.7 |
| 20260506085704 | 24 | 241 | 0.0 | 1.6 | 0.00 | 0.00 | 0.00 | 94 | 1006.7 |
| 20260506084704 | 24 | 284 | 1.6 | 4.8 | 0.00 | 0.00 | 0.00 | 93 | 1006.8 |
| 20260506084204 | 24 | 237 | 0.0 | 1.6 | 0.00 | 0.00 | 0.00 | 93 | 1006.8 |
| 20260506083704 | 25 | 253 | 1.6 | 3.2 | 0.00 | 0.00 | 0.00 | 93 | 1006.9 |
| 20260506083204 | 25 | 283 | 0.0 | 1.6 | 0.00 | 0.00 | 0.00 | 93 | 1007.0 |
| 20260506082704 | 25 | 291 | 1.6 | 1.6 | 0.00 | 0.00 | 0.00 | 93 | 1007.0 |
| 20260506082204 | 25 | 295 | 1.6 | 1.6 | 0.00 | 0.00 | 0.00 | 93 | 1007.0 |
| 20260506081704 | 25 | 293 | 0.0 | 1.6 | 0.00 | 0.00 | 0.00 | 92 | 1007.0 |
| 20260506081206 | 25 | 295 | 0.0 | 1.6 | 0.00 | 0.00 | 0.00 | 92 | 1007.0 |
| 20260506080204 | 25 | 275 | 1.6 | 3.2 | 0.00 | 0.00 | 0.00 | 92 | 1007.0 |
| 20260506073205 | 25 | 232 | 1.6 | 4.8 | 0.00 | 0.00 | 0.00 | 91 | 1007.3 |
| 20260506072704 | 25 | 206 | 0.0 | 1.6 | 0.00 | 0.00 | 0.00 | 91 | 1007.4 |
| 20260506072204 | 25 | 6 | 1.6 | 3.2 | 0.00 | 0.00 | 0.00 | 91 | 1007.4 |
| 20260506071704 | 25 | 30 | 1.6 | 1.6 | 0.00 | 0.00 | 0.00 | 91 | 1007.4 |
| 20260506070704 | 25 | 265 | 0.0 | 1.6 | 0.00 | 0.00 | 0.00 | 91 | 1007.5 |
| 20260506070204 | 25 | 180 | 0.0 | 1.6 | 0.00 | 0.00 | 0.00 | 91 | 1007.5 |
| 20260506062204 | 25 | 71 | 0.0 | 1.6 | 0.00 | 0.00 | 0.00 | 90 | 1007.8 |
| 20260506061703 | 25 | 287 | 0.0 | 1.6 | 0.00 | 0.00 | 0.00 | 90 | 1007.7 |
| 20260506060704 | 25 | 51 | 0.0 | 1.6 | 0.00 | 0.00 | 0.00 | 90 | 1007.8 |
| 20260506060205 | 25 | 291 | 1.6 | 1.6 | 0.00 | 0.00 | 0.00 | 90 | 1007.6 |
| 20260506051204 | 25 | 264 | 1.6 | 4.8 | 0.00 | 0.00 | 0.00 | 90 | 1007.7 |
| 20260506050704 | 25 | 335 | 1.6 | 4.8 | 0.00 | 0.00 | 0.00 | 90 | 1007.7 |
| 20260506044704 | 25 | 301 | 0.0 | 4.8 | 0.00 | 0.00 | 0.00 | 91 | 1007.7 |
| 20260506043704 | 25 | 288 | 1.6 | 4.8 | 0.00 | 0.00 | 0.00 | 91 | 1007.6 |
| 20260506043205 | 25 | 270 | 1.6 | 3.2 | 0.00 | 0.00 | 0.00 | 91 | 1007.6 |
| 20260506042704 | 25 | 275 | 0.0 | 3.2 | 0.00 | 0.00 | 0.00 | 91 | 1007.7 |
| 20260506042204 | 25 | 269 | 1.6 | 3.2 | 0.00 | 0.00 | 0.00 | 91 | 1007.7 |
| 20260506041705 | 25 | 287 | 0.0 | 3.2 | 0.00 | 0.00 | 0.00 | 92 | 1007.7 |
| 20260506041205 | 25 | 308 | 0.0 | 3.2 | 0.00 | 0.00 | 0.00 | 92 | 1007.7 |
| 20260506040704 | 25 | 275 | 1.6 | 4.8 | 0.00 | 0.00 | 0.00 | 91 | 1007.6 |
| 20260506040204 | 25 | 304 | 1.6 | 4.8 | 0.00 | 0.00 | 0.00 | 91 | 1007.6 |
| 20260506035704 | 25 | 319 | 0.0 | 3.2 | 0.00 | 0.00 | 0.00 | 91 | 1007.5 |
| 20260506035204 | 25 | 58 | 1.6 | 3.2 | 0.00 | 0.00 | 0.00 | 92 | 1007.5 |
| 20260506034704 | 25 | 267 | 1.6 | 4.8 | 0.00 | 0.00 | 0.00 | 91 | 1007.4 |
| 20260506034204 | 25 | 278 | 0.0 | 3.2 | 0.00 | 0.00 | 0.00 | 91 | 1007.4 |
| 20260506033704 | 25 | 273 | 1.6 | 3.2 | 0.00 | 0.00 | 0.00 | 91 | 1007.3 |
| 20260506033205 | 25 | 266 | 0.0 | 3.2 | 0.00 | 0.00 | 0.00 | 90 | 1007.2 |
| 20260506032704 | 25 | 4 | 1.6 | 4.8 | 0.00 | 0.00 | 0.00 | 90 | 1007.2 |
| 20260506032204 | 25 | 324 | 0.0 | 3.2 | 0.00 | 0.00 | 0.00 | 89 | 1007.2 |
| 20260506031705 | 25 | 357 | 1.6 | 4.8 | 0.00 | 0.00 | 0.00 | 89 | 1007.3 |
| 20260506031204 | 25 | 130 | 1.6 | 4.8 | 0.00 | 0.00 | 0.00 | 89 | 1007.2 |
| 20260506030704 | 25 | 301 | 1.6 | 4.8 | 0.00 | 0.00 | 0.00 | 89 | 1007.1 |
| 20260506030204 | 25 | 274 | 0.0 | 3.2 | 0.00 | 0.00 | 0.00 | 90 | 1007.0 |
| 20260506025704 | 25 | 297 | 1.6 | 3.2 | 0.00 | 0.00 | 0.00 | 89 | 1007.0 |
| 20260506025204 | 25 | 255 | 1.6 | 8.0 | 0.00 | 0.00 | 0.00 | 89 | 1006.9 |
| 20260506024704 | 25 | 299 | 1.6 | 8.0 | 0.00 | 0.00 | 0.00 | 89 | 1006.9 |
| 20260506024204 | 25 | 195 | 1.6 | 3.2 | 0.00 | 0.00 | 0.00 | 89 | 1006.9 |
| 20260506023703 | 25 | 280 | 1.6 | 3.2 | 0.00 | 0.00 | 0.00 | 88 | 1006.7 |
| 20260506021704 | 26 | 70 | 1.6 | 3.2 | 0.00 | 0.00 | 0.00 | 88 | 1006.5 |
| 20260506020704 | 26 | 42 | 1.6 | 4.8 | 0.00 | 0.00 | 0.00 | 87 | 1006.4 |
| 20260506015704 | 26 | 327 | 1.6 | 4.8 | 0.00 | 0.00 | 0.00 | 86 | 1006.2 |
| 20260506015205 | 26 | 341 | 0.0 | 3.2 | 0.00 | 0.00 | 0.00 | 86 | 1006.2 |
| 20260506014204 | 26 | 303 | 1.6 | 4.8 | 0.00 | 0.00 | 0.00 | 86 | 1006.0 |
| 20260506013704 | 26 | 206 | 1.6 | 8.0 | 0.00 | 0.00 | 0.00 | 86 | 1005.9 |
| 20260506013204 | 26 | 281 | 1.6 | 4.8 | 0.00 | 0.00 | 0.00 | 85 | 1005.8 |
| 20260506011704 | 26 | 270 | 1.6 | 4.8 | 0.00 | 0.00 | 0.00 | 84 | 1005.7 |
| 20260506011204 | 26 | 307 | 1.6 | 3.2 | 0.00 | 0.00 | 0.00 | 84 | 1005.7 |
| 20260506010704 | 26 | 267 | 1.6 | 4.8 | 0.00 | 0.00 | 0.00 | 84 | 1005.6 |
| 20260506010205 | 26 | 12 | 1.6 | 3.2 | 0.00 | 0.00 | 0.00 | 84 | 1005.6 |
| 20260506005704 | 26 | 284 | 1.6 | 4.8 | 0.00 | 0.00 | 0.00 | 84 | 1005.6 |
| 20260506005204 | 26 | 255 | 1.6 | 3.2 | 0.00 | 0.00 | 0.00 | 83 | 1005.5 |
| 20260506004704 | 26 | 300 | 1.6 | 3.2 | 0.00 | 0.00 | 0.00 | 83 | 1005.4 |
| 20260506004204 | 26 | 24 | 1.6 | 4.8 | 0.00 | 0.00 | 0.00 | 82 | 1005.3 |
| 20260506003704 | 26 | 310 | 1.6 | 8.0 | 0.00 | 0.00 | 0.00 | 81 | 1005.2 |
| 20260506003204 | 27 | 269 | 1.6 | 8.0 | 0.00 | 0.00 | 0.00 | 81 | 1005.2 |
| 20260506001204 | 27 | 293 | 1.6 | 4.8 | 0.00 | 0.00 | 0.00 | 80 | 1005.2 |
| 20260506000705 | 27 | 276 | 1.6 | 3.2 | 0.00 | 0.00 | 0.00 | 80 | 1005.2 |
| 20260505235704 | 27 | 247 | 1.6 | 4.8 | 0.00 | 0.00 | 0.00 | 78 | 1005.1 |
| 20260505235203 | 27 | 258 | 1.6 | 3.2 | 0.00 | 0.00 | 0.00 | 78 | 1005.1 |
| 20260505234704 | 27 | 319 | 1.6 | 3.2 | 0.00 | 0.00 | 0.00 | 78 | 1005.2 |
| 20260505234204 | 27 | 219 | 1.6 | 4.8 | 0.00 | 0.00 | 0.00 | 78 | 1005.2 |
| 20260505233703 | 27 | 307 | 1.6 | 4.8 | 0.00 | 0.00 | 0.00 | 78 | 1005.2 |
| 20260505233204 | 27 | 271 | 1.6 | 9.7 | 0.00 | 0.00 | 0.00 | 78 | 1005.2 |
| 20260505232704 | 27 | 304 | 1.6 | 4.8 | 0.00 | 0.00 | 0.00 | 78 | 1005.1 |
| 20260505232204 | 27 | 305 | 1.6 | 4.8 | 0.00 | 0.00 | 0.00 | 78 | 1005.1 |
| 20260505231704 | 27 | 291 | 1.6 | 4.8 | 0.00 | 0.00 | 0.00 | 78 | 1005.3 |
| 20260505230704 | 27 | 351 | 1.6 | 4.8 | 0.00 | 0.00 | 0.00 | 78 | 1005.2 |
| 20260505230204 | 27 | 271 | 1.6 | 8.0 | 0.00 | 0.00 | 0.00 | 78 | 1005.2 |
| 20260505225204 | 27 | 320 | 1.6 | 3.2 | 0.00 | 0.00 | 0.00 | 78 | 1005.2 |
| 20260505224704 | 27 | 274 | 1.6 | 3.2 | 0.00 | 0.00 | 0.00 | 78 | 1005.2 |
| 20260505223704 | 28 | 279 | 1.6 | 8.0 | 0.00 | 0.00 | 0.00 | 77 | 1005.3 |
| 20260505222704 | 28 | 302 | 1.6 | 3.2 | 0.00 | 0.00 | 0.00 | 77 | 1005.3 |
| 20260505222204 | 28 | 257 | 1.6 | 8.0 | 0.00 | 0.00 | 0.00 | 78 | 1005.3 |
| 20260505221704 | 28 | 322 | 1.6 | 4.8 | 0.00 | 0.00 | 0.00 | 78 | 1005.3 |
| 20260505221206 | 28 | 284 | 1.6 | 3.2 | 0.00 | 0.00 | 0.00 | 78 | 1005.4 |
| 20260505220204 | 28 | 267 | 1.6 | 4.8 | 0.00 | 0.00 | 0.00 | 77 | 1005.5 |
| 20260505215706 | 28 | 283 | 1.6 | 4.8 | 0.00 | 0.00 | 0.00 | 77 | 1005.5 |
| 20260505215203 | 28 | 261 | 1.6 | 4.8 | 0.00 | 0.00 | 0.00 | 77 | 1005.5 |
| 20260505214704 | 28 | 13 | 1.6 | 4.8 | 0.00 | 0.00 | 0.00 | 77 | 1005.6 |
| 20260505214205 | 28 | 266 | 1.6 | 4.8 | 0.00 | 0.00 | 0.00 | 77 | 1005.6 |
| 20260505213704 | 28 | 308 | 1.6 | 4.8 | 0.00 | 0.00 | 0.00 | 77 | 1005.6 |
| 20260505211704 | 28 | 302 | 1.6 | 8.0 | 0.00 | 0.00 | 0.00 | 76 | 1005.8 |
| 20260505211204 | 28 | 341 | 1.6 | 4.8 | 0.00 | 0.00 | 0.00 | 77 | 1005.9 |
| 20260505210704 | 28 | 313 | 1.6 | 4.8 | 0.00 | 0.00 | 0.00 | 77 | 1005.8 |
| 20260505205705 | 28 | 281 | 1.6 | 11.3 | 0.00 | 0.00 | 0.00 | 76 | 1006.1 |
| 20260505205203 | 28 | 290 | 1.6 | 8.0 | 0.00 | 0.00 | 0.00 | 77 | 1006.0 |
| 20260505204203 | 29 | 283 | 1.6 | 4.8 | 0.00 | 0.00 | 0.00 | 75 | 1006.1 |
| 20260505203704 | 28 | 298 | 1.6 | 4.8 | 0.00 | 0.00 | 0.00 | 76 | 1006.4 |
| 20260505203204 | 28 | 281 | 1.6 | 3.2 | 0.00 | 0.00 | 0.00 | 77 | 1006.3 |